sat.trackr.live / text

‹ back to catalog

STARLINK-4689

NORAD 53590 · 2022-104C

PAYLOAD ACTIVE UNKNOWN

§ Identity

Operator
Country
US
Launch date
2022-08-28
Launch site
AFETR
Launch vehicle
Mass (kg)
RCS (m²)

Purposes: comms

External: N2YO · Heavens-Above · Gunter

§ Orbital elements

Epoch: 2026-05-25T04:00:03.998880Z

Period
93.28 min
Inclination
53.2186°
Eccentricity
0.0001412
Mean motion
15.43698841 rev/d
Perigee alt
434.2 km
Apogee alt
436.2 km
Semi-major
6,813.3 km
B*
3.7603e-3
RAAN
254.7207°
Arg perigee
77.0232°
Mean anomaly
57.6228°
Rev number
563

§ Raw data

STARLINK-46891 53590U 22104C   26145.16671295  .00175891  00000+0  37603-2 0  99972 53590  53.2186 254.7207 0001412  77.0232  57.6228 15.43698841  5638

JSON: /api/v1/satellites/53590 · /tle

For live sub-satellite position, see the globe view (requires WebGL).

§ Visibility from observer

Set your observer location to see the next 7 days of passes ≥ 10°. The values pass through the URL so the page stays shareable.

No JS? Fill the form by hand. The geolocation button needs JavaScript.